sat.trackr.live / text

‹ back to catalog

STARLINK-35612

NORAD 66128 · 2025-237Q

PAYLOAD ACTIVE UNKNOWN

§ Identity

Operator
Country
US
Launch date
2025-10-22
Launch site
AFWTR
Launch vehicle
Mass (kg)
RCS (m²)

Purposes: comms

External: N2YO · Heavens-Above · Gunter

§ Orbital elements

Epoch: 2026-09-20T21:33:53.419680Z

Period
93.85 min
Inclination
53.1551°
Eccentricity
0.0001256
Mean motion
15.34375807 rev/d
Perigee alt
461.9 km
Apogee alt
463.6 km
Semi-major
6,840.9 km
B*
2.6522e-4
RAAN
211.7824°
Arg perigee
90.7364°
Mean anomaly
269.3783°
Rev number
5,251

§ Raw data

STARLINK-356121 66128U 25237Q   26263.89853495  .00008588  00000+0  26522-3 0  99902 66128  53.1551 211.7824 0001256  90.7364 269.3783 15.34375807 52517

JSON: /api/v1/satellites/66128 · /tle

For live sub-satellite position, see the globe view (requires WebGL).

§ Visibility from observer

Set your observer location to see the next 7 days of passes ≥ 10°. The values pass through the URL so the page stays shareable.

No JS? Fill the form by hand. The geolocation button needs JavaScript.